Content
SEND FEEDBACK

Daily
Averages
Monthly
Summary
United States of America

NEW YORK - CENTRAL PARK, NEW YORK


Home > North America > United States > New York
Elevation: 14 feet     Latitude: 40 47N     Longitude: 073 58W

WEATHER
 
SELECT A DAY
Number of Records: 148,192;   Date Range: 11/1/95 - 8/28/14
 
SHARE

PRINT THIS DATA

[ ← Previous Day ]
WEATHER ALMANAC - JULY 8, 2013
[ Next Day → ]
[ °C ]   °F
We're sorry. There is no daily almanac available for New York - Central Park, New York on July 8, 2013.
WEATHER BY HOUR - JULY 8, 2013
[ °C ]   °F
Local TimeTemperatureDewpointHumidityBarometerVisibilityWind DirectionWind SpeedGust SpeedPrecipitationEventsConditions
1:51 AM77.0 °F64.9 °F66 %30.00 in10.0 miCalmClear
2:51 AM75.9 °F66.0 °F71 %29.99 in10.0 miVariable3.5 mphClear
3:51 AM75.0 °F66.0 °F73 %29.99 in10.0 miWSW (250°)4.6 mphClear
4:51 AM73.9 °F66.0 °F76 %30.00 in10.0 miVariable5.8 mphClear
5:51 AM73.9 °F66.0 °F76 %30.01 in10.0 miVariable4.6 mphClear
6:51 AM73.9 °F66.9 °F79 %30.03 in9.0 miWest (280°)4.6 mphClear
7:51 AM75.0 °F66.9 °F76 %30.03 in9.0 miWest (270°)8.1 mphClear
8:51 AM77.0 °F68.0 °F74 %30.04 in9.0 miVariable5.8 mphClear
9:51 AM79.0 °F68.0 °F69 %30.03 in9.0 miWest (270°)5.8 mphClear
10:51 AM82.0 °F64.9 °F56 %30.03 in9.0 miCalmClear
11:51 AM86.0 °F64.9 °F49 %30.03 in9.0 miCalmClear
12:51 PM87.1 °F66.9 °F51 %30.02 in10.0 miNorthPartly Cloudy
1:51 PM88.0 °F66.0 °F48 %30.01 in10.0 miVariable6.9 mphPartly Cloudy
2:51 PM88.0 °F64.9 °F46 %30.00 in10.0 miWest (270°)5.8 mphScattered Clouds
3:51 PM88.0 °F64.9 °F46 %29.99 in9.0 miVariable3.5 mph20.7 mphPartly Cloudy
4:51 PM87.1 °F66.0 °F49 %29.98 in9.0 miVariable3.5 mphScattered Clouds
5:51 PM84.9 °F64.9 °F51 %29.97 in9.0 miVariable5.8 mphOvercast
6:51 PM84.0 °F66.9 °F56 %29.96 in8.0 miVariable3.5 mphMostly Cloudy
7:51 PM84.0 °F66.9 °F56 %29.99 in8.0 miVariable6.9 mph19.6 mphOvercast
8:01 PM82.0 °F69.1 °F65 %30.04 in1.0 miWSW (250°)12.7 mph24.2 mph0.00 inRainLight Rain
8:08 PM75.0 °F72.0 °F90 %30.03 in0.2 miCalm0.22 inFog-RainHeavy Rain
8:16 PM75.0 °F72.0 °F90 %30.03 in2.0 miCalm0.22 inRainLight Rain
8:24 PM75.0 °F71.1 °F87 %30.04 in4.0 miVariable3.5 mph0.22 inMostly Cloudy
8:51 PM73.9 °F70.0 °F87 %30.02 in7.0 miWSW (250°)5.8 mph0.22 inMostly Cloudy
9:51 PM75.9 °F69.1 °F79 %30.04 in8.0 miNorthClear
10:51 PM75.9 °F68.0 °F76 %30.04 in8.0 miVariable5.8 mphClear
11:51 PM77.0 °F66.0 °F69 %30.05 in9.0 miVariable6.9 mphClear
Hourly data recorded from KNYC, located miles away from New York - Central Park, New York







STORIES FROM OUR PARTNERS